Flag for Germany Weather past 2 weeks in Erlangen, Bavaria, Germany

Now
66 °F

Broken clouds.


Feels Like: 66 °F
Forecast: 56 / 77 °F
Wind: 8 mph from Southwest

Location: Nuernberg

Current Time: May 4, 2015 at 1:07:35 PM

Latest Report: May 4, 2015 at 12:20 PM


Visibility: N/A

Pressure: 29.89 "Hg

Humidity: 64%

Dew point: 54 °F

Location of ErlangenLocation

Historic Weather in Erlangen — Graph

°F

Erlangen temperature yesterday

Maximum temperature yesterday: 61 °F (at 3:50 PM)
Minimum temperature yesterday: 45 °F (at 12:50 AM)
Average temperature yesterday: 55 °F

Past Weeks' High & Low Weather Summary

 TemperatureHumidityPressure
High72 °F (Apr 27, 2:50 PM)100% (Apr 26, 4:50 AM)30.39 "Hg (Apr 26, 4:50 AM)
Low30 °F (Apr 20, 6:20 AM)21% (Apr 21, 5:20 PM)29.53 "Hg (Apr 27, 3:20 PM)
Average52 °F68%29.96 "Hg
* Reported Apr 19 11:20 AM — May 4 11:50 AM, Erlangen, Weather by CustomWeather, © 2015

Note: Actual official high and low records may vary slightly from our data, if they occured in-between our weather recording intervals... More about our weather records

Advertising

Erlangen weather history for previous 24 hours

 ConditionsComfort  
Time TempWeatherWind HumidityBarometerVisibility
11:50 AM
Mon, May 4
64 °FBroken clouds.8 mph68%29.89 "HgN/A
11:20 AM64 °FBroken clouds.12 mph68%29.89 "HgN/A
10:50 AM64 °FPartly sunny.6 mph68%29.89 "HgN/A
10:20 AM61 °FPartly sunny.6 mph83%29.89 "HgN/A
9:50 AM61 °FPartly sunny.7 mph83%29.89 "HgN/A
9:20 AM61 °FBroken clouds.6 mph83%29.89 "HgN/A
8:50 AM59 °FBroken clouds.6 mph88%29.89 "HgN/A
8:20 AM59 °FPartly sunny.8 mph88%29.89 "HgN/A
7:50 AM57 °FPartly sunny.5 mph94%29.86 "HgN/A
7:20 AM57 °FBroken clouds.3 mph94%29.86 "HgN/A
6:50 AM57 °FBroken clouds.5 mph94%29.86 "HgN/A
6:20 AM57 °FPartly cloudy.6 mph94%29.83 "HgN/A
5:50 AM57 °FPartly cloudy.6 mph94%29.83 "HgN/A
5:20 AM57 °FPassing clouds.5 mph94%29.83 "HgN/A
4:50 AM59 °FPassing clouds.7 mph94%29.80 "HgN/A
4:20 AM59 °FSprinkles. Passing clouds.7 mph94%29.80 "HgN/A
3:50 AM59 °FPassing clouds.6 mph94%29.80 "HgN/A
3:20 AM59 °FSprinkles. Passing clouds.3 mph94%29.80 "Hg4 mi
2:50 AM59 °FSprinkles. Partly cloudy.1 mph94%29.80 "HgN/A
2:20 AM59 °FPassing clouds.3 mph94%29.77 "HgN/A
1:50 AM59 °FPartly cloudy.3 mph94%29.77 "HgN/A
1:20 AM59 °FPassing clouds.3 mph94%29.80 "HgN/A
12:50 AM59 °FPassing clouds.3 mph94%29.77 "HgN/A
12:20 AM59 °FSprinkles. Partly cloudy.3 mph94%29.77 "HgN/A
11:50 PM
Sun, May 3
59 °FSprinkles. Fog.3 mph94%29.77 "HgN/A
11:20 PM59 °FFog.2 mph94%29.77 "HgN/A
10:50 PM59 °FPartly cloudy.5 mph94%29.77 "HgN/A
10:20 PM59 °FPassing clouds.2 mph100%29.77 "HgN/A
9:50 PM59 °FPartly cloudy.3 mph94%29.74 "HgN/A
9:20 PM59 °FLight rain. Broken clouds.2 mph94%29.74 "Hg5 mi
8:50 PM59 °FLight rain. Partly sunny.2 mph100%29.74 "HgN/A
8:20 PM59 °FLight rain. Partly sunny.2 mph100%29.74 "HgN/A
7:50 PM61 °FLight rain. Broken clouds.3 mph94%29.74 "HgN/A
7:20 PM61 °FLight rain. Broken clouds.3 mph94%29.74 "HgN/A
6:50 PM61 °FLight rain. Partly sunny.5 mph94%29.71 "HgN/A
6:20 PM61 °FLight rain. Partly sunny.3 mph88%29.74 "HgN/A
5:50 PM61 °FLight rain. Broken clouds.5 mph88%29.74 "HgN/A
5:20 PM61 °FLight rain. Scattered clouds.7 mph94%29.74 "HgN/A
4:50 PM61 °FLight rain. Broken clouds.7 mph88%29.74 "HgN/A
4:20 PM61 °FLight rain. Partly sunny.5 mph88%29.74 "HgN/A
3:50 PM61 °FPartly sunny.6 mph88%29.77 "HgN/A
3:20 PM59 °FLight rain. Partly sunny.5 mph94%29.77 "Hg4 mi
2:50 PM59 °FLight rain. Partly sunny.7 mph94%29.77 "Hg4 mi
2:20 PM59 °FDrizzle. Partly sunny.8 mph88%29.77 "Hg5 mi
1:50 PM59 °FPartly sunny.8 mph88%29.77 "Hg6 mi
1:20 PM57 °FPartly sunny.8 mph88%29.77 "HgN/A
Weather by CustomWeather, © 2015

See weather overviewHow to use our weather pages